Tracking 25710 objects as of 6-Jul-2022
HD Live streaming from Space Station
objects crossing your sky now

STARLINK-2496

Track STARLINK-2496 now!
10-day predictions
STARLINK-2496 is classified as:


NORAD ID: 48486
Int'l Code: 2021-040BL
Perigee: 553.0 km
Apogee: 555.7 km
Inclination: 53.1 °
Period: 95.6 minutes
Semi major axis: 6925 km
RCS: Unknown
Launch date: May 9, 2021
Source: United States (US)
Launch site: AIR FORCE EASTERN TEST RANGE (AFETR)
aabbcc
Your satellite tracking list
Your tracking list is empty




NASA's NSSDC Master Catalog

Two Line Element Set (TLE):
1 48486U 21040BL  22187.16742690  .00001775  00000-0  13808-3 0  9995
2 48486  53.0548 108.4290 0001968  63.7288 296.3903 15.06393010 65279
Source of the keplerian elements: AFSPC